When you browse on this site, cookies collect data to enhance your experience and personalize the content and advertising you see.
Visit our Privacy Policy to learn more. By continuing to use the site, you agree to this use of cookies and data.
  • In Hungary
  • List of Countries
  • For 7 days
  • Water Temperature
  • Weather Map
  • News
  • Weather Widgets
  • user-avatar
    Login

    Hourly Weather Piryany

    Today, 22 January, Wednesday

    Time Temperature Precipitation Wind Pressure Humidity
    00:00 0°C° 0 mm 7 mps 742 mmHg 89%
    01:00 +1°C° 0 mm 6 mps 742 mmHg 87%
    02:00 -1°C° 0 mm 6 mps 742 mmHg 87%
    03:00 -1°C° 0 mm 6 mps 741 mmHg 88%
    04:00 -1°C° 0 mm 6 mps 740 mmHg 89%
    05:00 0°C° 0 mm 5 mps 739 mmHg 90%
    06:00 0°C° 1.1 mm 5 mps 739 mmHg 92%
    07:00 -1°C° 1.1 mm 4 mps 738 mmHg 95%
    08:00 -1°C° 1.1 mm 4 mps 738 mmHg 97%
    09:00 -1°C° 0.4 mm 4 mps 737 mmHg 93%
    10:00 0°C° 0.4 mm 5 mps 737 mmHg 89%
    11:00 0°C° 0.4 mm 5 mps 736 mmHg 85%
    12:00 -1°C° 0 mm 6 mps 736 mmHg 83%
    13:00 +1°C° 0 mm 6 mps 736 mmHg 82%
    14:00 0°C° 0 mm 7 mps 735 mmHg 80%
    15:00 -1°C° 0.1 mm 6 mps 735 mmHg 79%
    16:00 -2°C° 0.1 mm 6 mps 735 mmHg 78%
    17:00 -1°C° 0.1 mm 5 mps 736 mmHg 77%
    18:00 -3°C° 0 mm 6 mps 736 mmHg 77%
    19:00 -3°C° 0 mm 6 mps 737 mmHg 77%
    20:00 -4°C° 0 mm 6 mps 738 mmHg 77%
    21:00 -4°C° 0 mm 6 mps 738 mmHg 77%
    22:00 -4°C° 0 mm 6 mps 739 mmHg 77%
    23:00 -5°C° 0 mm 6 mps 739 mmHg 77%

    Tomorrow, 23 January, Thursday

    Time Temperature Precipitation Wind Pressure Humidity
    00:00 -6°C° 0 mm 7 mps 740 mmHg 78%
    01:00 -6°C° 0 mm 7 mps 740 mmHg 79%
    02:00 -6°C° 0 mm 7 mps 741 mmHg 80%
    03:00 -6°C° 0 mm 8 mps 741 mmHg 75%
    04:00 -6°C° 0 mm 8 mps 742 mmHg 70%
    05:00 -7°C° 0 mm 8 mps 742 mmHg 64%
    06:00 -7°C° 0 mm 8 mps 743 mmHg 63%
    07:00 -7°C° 0 mm 7 mps 744 mmHg 62%
    08:00 -6°C° 0 mm 6 mps 744 mmHg 61%
    09:00 -7°C° 0 mm 7 mps 745 mmHg 60%
    10:00 -6°C° 0 mm 7 mps 745 mmHg 58%
    11:00 -6°C° 0 mm 7 mps 746 mmHg 56%
    12:00 -4°C° 0 mm 7 mps 746 mmHg 54%
    13:00 -4°C° 0 mm 7 mps 746 mmHg 52%
    14:00 -3°C° 0 mm 6 mps 747 mmHg 50%
    15:00 -4°C° 0 mm 6 mps 747 mmHg 54%
    16:00 -4°C° 0 mm 6 mps 747 mmHg 58%
    17:00 -5°C° 0 mm 6 mps 747 mmHg 62%
    18:00 -5°C° 0 mm 5 mps 747 mmHg 67%
    19:00 -5°C° 0 mm 5 mps 747 mmHg 71%
    20:00 -5°C° 0 mm 5 mps 747 mmHg 75%
    21:00 -5°C° 0 mm 5 mps 747 mmHg 78%
    22:00 -4°C° 0 mm 5 mps 747 mmHg 80%
    23:00 -3°C° 0 mm 4 mps 747 mmHg 82%

    Day after tomorrow, 24 January, Friday

    Time Temperature Precipitation Wind Pressure Humidity
    00:00 -3°C° 0 mm 4 mps 747 mmHg 85%
    01:00 -3°C° 0 mm 4 mps 747 mmHg 87%
    02:00 -3°C° 0 mm 4 mps 747 mmHg 90%
    03:00 -3°C° 0 mm 4 mps 746 mmHg 89%
    04:00 -3°C° 0 mm 4 mps 746 mmHg 89%
    05:00 -4°C° 0 mm 5 mps 745 mmHg 88%
    06:00 -4°C° 0.3 mm 5 mps 745 mmHg 90%
    07:00 -4°C° 0.3 mm 6 mps 744 mmHg 93%
    08:00 -4°C° 0.3 mm 6 mps 744 mmHg 95%
    09:00 -3°C° 0.3 mm 6 mps 743 mmHg 95%
    10:00 -2°C° 0.3 mm 6 mps 743 mmHg 96%
    11:00 -2°C° 0.3 mm 6 mps 742 mmHg 96%
    12:00 -1°C° 0.1 mm 6 mps 742 mmHg 95%
    13:00 -1°C° 0.1 mm 7 mps 742 mmHg 94%
    14:00 0°C° 0.1 mm 7 mps 742 mmHg 93%
    15:00 0°C° 0 mm 7 mps 741 mmHg 93%
    16:00 0°C° 0 mm 7 mps 741 mmHg 92%
    17:00 +1°C° 0 mm 6 mps 741 mmHg 92%
    18:00 +1°C° 0 mm 6 mps 741 mmHg 92%
    19:00 +1°C° 0 mm 6 mps 741 mmHg 92%
    20:00 +1°C° 0 mm 6 mps 742 mmHg 93%
    21:00 +1°C° 0.1 mm 6 mps 741 mmHg 93%
    22:00 +1°C° 0.1 mm 6 mps 741 mmHg 94%
    23:00 +1°C° 0.1 mm 6 mps 741 mmHg 95%

    25 January, Saturday

    Time Temperature Precipitation Wind Pressure Humidity
    00:00 +1°C° 0.3 mm 6 mps 740 mmHg 95%
    01:00 +1°C° 0.3 mm 6 mps 740 mmHg 95%
    02:00 +1°C° 0.3 mm 6 mps 740 mmHg 95%
    03:00 +1°C° 0.5 mm 6 mps 740 mmHg 95%
    04:00 +1°C° 0.5 mm 6 mps 739 mmHg 95%
    05:00 +1°C° 0.5 mm 6 mps 739 mmHg 95%
    06:00 +1°C° 0.2 mm 6 mps 739 mmHg 95%
    07:00 +1°C° 0.2 mm 5 mps 739 mmHg 95%
    08:00 +1°C° 0.2 mm 5 mps 739 mmHg 94%
    09:00 +1°C° 0 mm 6 mps 739 mmHg 91%
    10:00 +1°C° 0 mm 6 mps 739 mmHg 88%
    11:00 0°C° 0 mm 7 mps 739 mmHg 86%
    12:00 +1°C° 0.1 mm 6 mps 739 mmHg 86%
    13:00 +1°C° 0.1 mm 6 mps 739 mmHg 86%
    14:00 +1°C° 0.1 mm 6 mps 739 mmHg 87%
    15:00 +1°C° 0 mm 6 mps 739 mmHg 85%
    16:00 -1°C° 0 mm 6 mps 739 mmHg 84%
    17:00 -2°C° 0 mm 6 mps 739 mmHg 83%
    18:00 -2°C° 0 mm 6 mps 740 mmHg 83%
    19:00 -2°C° 0 mm 6 mps 740 mmHg 84%
    20:00 -3°C° 0 mm 6 mps 740 mmHg 85%
    21:00 -3°C° 0 mm 6 mps 741 mmHg 86%
    22:00 -3°C° 0 mm 6 mps 742 mmHg 86%
    23:00 -2°C° 0 mm 5 mps 742 mmHg 87%

    26 January, Sunday

    Time Temperature Precipitation Wind Pressure Humidity
    00:00 -2°C° 0 mm 5 mps 743 mmHg 88%
    01:00 -2°C° 0 mm 5 mps 743 mmHg 89%
    02:00 -4°C° 0 mm 5 mps 743 mmHg 90%
    03:00 -3°C° 0 mm 4 mps 744 mmHg 90%
    04:00 -3°C° 0 mm 4 mps 744 mmHg 91%
    05:00 -3°C° 0 mm 4 mps 744 mmHg 92%
    06:00 -3°C° 0 mm 4 mps 744 mmHg 93%
    07:00 -3°C° 0 mm 4 mps 745 mmHg 93%
    08:00 -2°C° 0 mm 3 mps 745 mmHg 94%
    09:00 -2°C° 0 mm 3 mps 746 mmHg 91%
    10:00 -1°C° 0 mm 3 mps 746 mmHg 89%
    11:00 0°C° 0 mm 3 mps 746 mmHg 86%
    12:00 0°C° 0 mm 3 mps 746 mmHg 86%
    13:00 0°C° 0 mm 3 mps 747 mmHg 86%
    14:00 +1°C° 0 mm 3 mps 747 mmHg 85%
    15:00 0°C° 0 mm 3 mps 747 mmHg 87%
    16:00 0°C° 0 mm 3 mps 747 mmHg 88%
    17:00 -1°C° 0 mm 3 mps 747 mmHg 90%
    18:00 -1°C° 0 mm 2 mps 747 mmHg 89%
    19:00 -1°C° 0 mm 2 mps 748 mmHg 89%
    20:00 -1°C° 0 mm 2 mps 748 mmHg 88%
    21:00 +1°C° 0 mm 1 mps 748 mmHg 88%
    22:00 +1°C° 0 mm 1 mps 748 mmHg 88%
    23:00 +1°C° 0 mm 1 mps 748 mmHg 87%

    27 January, Monday

    Time Temperature Precipitation Wind Pressure Humidity
    00:00 +1°C° 0 mm 1 mps 748 mmHg 88%
    01:00 +1°C° 0 mm 1 mps 748 mmHg 89%
    02:00 -1°C° 0 mm 2 mps 748 mmHg 89%
    03:00 -1°C° 0 mm 2 mps 748 mmHg 89%
    04:00 -1°C° 0 mm 2 mps 748 mmHg 90%
    05:00 -1°C° 0 mm 3 mps 748 mmHg 90%
    06:00 -1°C° 0 mm 3 mps 747 mmHg 92%
    07:00 -1°C° 0 mm 3 mps 747 mmHg 93%
    08:00 -2°C° 0 mm 4 mps 747 mmHg 95%
    09:00 -1°C° 0 mm 4 mps 747 mmHg 92%
    10:00 -1°C° 0 mm 4 mps 747 mmHg 90%
    11:00 -1°C° 0 mm 4 mps 747 mmHg 87%
    12:00 -1°C° 0 mm 4 mps 746 mmHg 90%
    13:00 -1°C° 0 mm 4 mps 746 mmHg 93%
    14:00 0°C° 0 mm 4 mps 745 mmHg 97%
    15:00 0°C° 0.1 mm 5 mps 745 mmHg 96%
    16:00 0°C° 0.1 mm 5 mps 745 mmHg 96%
    17:00 0°C° 0.1 mm 5 mps 744 mmHg 95%
    18:00 0°C° 0 mm 5 mps 744 mmHg 95%
    19:00 -1°C° 0 mm 5 mps 744 mmHg 94%
    20:00 -1°C° 0 mm 5 mps 743 mmHg 94%
    21:00 -1°C° 0 mm 5 mps 743 mmHg 95%
    22:00 -1°C° 0 mm 5 mps 743 mmHg 96%
    23:00 -1°C° 0 mm 5 mps 743 mmHg 97%
    Show more